Weather History for KLVN - December, 2011

Change the Weather History Date:

Sunday, December 25, 2011

  Actual Average Record
Temperature  
Mean Temperature 34 °F -  
Max Temperature 39 °F 21 °F 41 °F (1999)
Min Temperature 26 °F 3 °F -27 °F (2000)
Degree Days  
Heating Degree Days 32    
Moisture  
Dew Point 23 °F    
Average Humidity 67    
Maximum Humidity 80    
Minimum Humidity 52    
Precipitation  
Precipitation 0.00 in - - ()
Sea Level Pressure  
Sea Level Pressure 30.17 in    
Wind  
Wind Speed 12 mph (West)    
Max Wind Speed 20 mph    
Max Gust Speed 28 mph    
Visibility 10 miles    
Events      
Averages and records for this station are not official NWS values.
T = Trace of Precipitation, MM = Missing Value Source: NWS Daily Summary

Daily Weather History Graph

Daily Weather History Graph

Search for Another Location

Airport or City:

Trip Planner

Search our weather history database for the weather conditions in past years. The results will help you decide how hot, cold, wet, or windy it might be!

Date:

Astronomy

Dec. 25, 2011 Rise Set
Actual Time 7:48 AM CST 4:37 PM CST
Civil Twilight 7:14 AM CST 5:11 PM CST
Nautical Twilight 6:37 AM CST 5:48 PM CST
Astronomical Twilight 6:02 AM CST 6:23 PM CST
Moon 8:25 AM CST (12/25) 6:01 PM CST (12/25)
Length of Visible Light 9h 56m
Length of Day
8h 49m
New Moon, 1% of the Moon is Illuminated
Dec 25
New Moon
Jan 1
First Quarter
Jan 9
Full
Jan 16
Last Quarter
Jan 23
New

Hourly Weather History & Observations

Time (CST) Temp. Windchill Dew Point Humidity Pressure Visibility Wind Dir Wind Speed Gust Speed Precip Events Conditions
12:08 AM 35.6 °F 27.1 °F 21.2 °F 56% 30.01 in 10.0 mi West 12.7 mph 17.3 mph N/A   Clear
12:28 AM 35.6 °F 27.5 °F 21.2 °F 56% 30.01 in 10.0 mi West 11.5 mph 18.4 mph N/A   Clear
12:49 AM 35.6 °F 26.2 °F 21.2 °F 56% 30.00 in 10.0 mi West 15.0 mph 20.7 mph N/A   Clear
1:08 AM 35.6 °F 27.1 °F 21.2 °F 56% 30.00 in 10.0 mi West 12.7 mph 21.9 mph N/A   Clear
1:28 AM 33.8 °F 24.3 °F 21.2 °F 60% 30.00 in 10.0 mi WSW 13.8 mph 18.4 mph N/A   Clear
1:49 AM 33.8 °F 24.8 °F 21.2 °F 60% 30.00 in 10.0 mi West 12.7 mph 19.6 mph N/A   Clear
2:08 AM 33.8 °F 25.8 °F 21.2 °F 60% 30.01 in 10.0 mi West 10.4 mph 20.7 mph N/A   Clear
2:28 AM 33.8 °F 25.3 °F 21.2 °F 60% 30.01 in 10.0 mi West 11.5 mph - N/A   Clear
2:48 AM 33.8 °F 25.3 °F 21.2 °F 60% 30.01 in 10.0 mi West 11.5 mph 18.4 mph N/A   Clear
3:08 AM 33.8 °F 24.8 °F 21.2 °F 60% 30.02 in 10.0 mi West 12.7 mph 17.3 mph N/A   Clear
3:29 AM 32.0 °F 22.5 °F 21.2 °F 64% 30.02 in 10.0 mi West 12.7 mph 18.4 mph N/A   Clear
3:48 AM 30.2 °F 20.8 °F 21.2 °F 69% 30.03 in 10.0 mi West 11.5 mph - N/A   Clear
4:09 AM 30.2 °F 20.8 °F 23.0 °F 75% 30.04 in 10.0 mi West 11.5 mph - N/A   Clear
4:28 AM 30.2 °F 20.2 °F 23.0 °F 75% 30.05 in 10.0 mi WNW 12.7 mph - N/A   Clear
4:48 AM 30.2 °F 20.2 °F 23.0 °F 75% 30.05 in 10.0 mi West 12.7 mph - N/A   Clear
5:08 AM 30.2 °F 20.8 °F 23.0 °F 75% 30.06 in 10.0 mi West 11.5 mph - N/A   Clear
5:28 AM 30.2 °F 20.2 °F 23.0 °F 75% 30.08 in 10.0 mi WNW 12.7 mph - N/A   Clear
6:09 AM 28.4 °F 18.5 °F 23.0 °F 80% 30.11 in 10.0 mi West 11.5 mph - N/A   Clear
6:28 AM 28.4 °F 18.5 °F 23.0 °F 80% 30.12 in 10.0 mi West 11.5 mph - N/A   Clear
6:49 AM 28.4 °F 17.5 °F 23.0 °F 80% 30.13 in 10.0 mi West 13.8 mph - N/A   Clear
7:08 AM 28.4 °F 18.0 °F 23.0 °F 80% 30.13 in 10.0 mi West 12.7 mph - N/A   Clear
7:28 AM 28.4 °F 18.0 °F 23.0 °F 80% 30.14 in 10.0 mi West 12.7 mph - N/A   Clear
7:49 AM 28.4 °F 17.5 °F 23.0 °F 80% 30.15 in 10.0 mi West 13.8 mph - N/A   Clear
8:08 AM 28.4 °F 18.5 °F 23.0 °F 80% 30.16 in 10.0 mi West 11.5 mph - N/A   Clear
8:28 AM 30.2 °F 19.8 °F 24.8 °F 80% 30.17 in 10.0 mi West 13.8 mph - N/A   Clear
8:49 AM 30.2 °F 19.8 °F 24.8 °F 80% 30.18 in 10.0 mi West 13.8 mph - N/A   Clear
9:08 AM 30.2 °F 19.3 °F 24.8 °F 80% 30.19 in 10.0 mi West 15.0 mph 20.7 mph N/A   Clear
9:28 AM 32.0 °F 20.5 °F 24.8 °F 75% 30.21 in 10.0 mi West 18.4 mph 24.2 mph N/A   Clear
9:49 AM 33.8 °F 23.5 °F 24.8 °F 70% 30.22 in 10.0 mi West 16.1 mph 23.0 mph N/A   Clear
10:08 AM 33.8 °F 22.8 °F 24.8 °F 70% 30.22 in 10.0 mi West 18.4 mph - N/A   Clear
10:28 AM 35.6 °F 25.5 °F 24.8 °F 65% 30.22 in 10.0 mi WNW 17.3 mph 23.0 mph N/A   Clear
10:49 AM 35.6 °F 25.5 °F 24.8 °F 65% 30.23 in 10.0 mi WNW 17.3 mph - N/A   Clear
11:08 AM 37.4 °F 28.2 °F 24.8 °F 60% 30.23 in 10.0 mi WNW 16.1 mph - N/A   Clear
11:29 AM 37.4 °F 27.5 °F 24.8 °F 60% 30.23 in 10.0 mi WNW 18.4 mph 23.0 mph N/A   Clear
11:48 AM 37.4 °F 28.2 °F 24.8 °F 60% 30.23 in 10.0 mi WNW 16.1 mph 27.6 mph N/A   Clear
12:08 PM 37.4 °F 27.8 °F 24.8 °F 60% 30.23 in 10.0 mi WNW 17.3 mph 24.2 mph N/A   Clear
12:29 PM 39.2 °F 29.6 °F 24.8 °F 56% 30.23 in 10.0 mi NW 19.6 mph 23.0 mph N/A   Clear
12:48 PM 39.2 °F 29.6 °F 24.8 °F 56% 30.23 in 10.0 mi NW 19.6 mph 25.3 mph N/A   Clear
1:08 PM 39.2 °F 29.8 °F 24.8 °F 56% 30.22 in 10.0 mi NW 18.4 mph - N/A   Clear
1:29 PM 39.2 °F 30.8 °F 24.8 °F 56% 30.23 in 10.0 mi WNW 15.0 mph 19.6 mph N/A   Clear
1:48 PM 39.2 °F 30.5 °F 24.8 °F 56% 30.23 in 10.0 mi WNW 16.1 mph 25.3 mph N/A   Clear
2:08 PM 39.2 °F 30.2 °F 24.8 °F 56% 30.23 in 10.0 mi NW 17.3 mph 21.9 mph N/A   Clear
2:29 PM 39.2 °F 30.5 °F 23.0 °F 52% 30.24 in 10.0 mi NW 16.1 mph 23.0 mph N/A   Clear
2:48 PM 39.2 °F 30.2 °F 23.0 °F 52% 30.24 in 10.0 mi NW 17.3 mph 21.9 mph N/A   Clear
3:08 PM 39.2 °F 32.0 °F 24.8 °F 56% 30.25 in 10.0 mi WNW 11.5 mph 20.7 mph N/A   Clear
3:28 PM 39.2 °F 33.0 °F 23.0 °F 52% 30.26 in 10.0 mi NW 9.2 mph - N/A   Clear
3:48 PM 37.4 °F 30.3 °F 23.0 °F 56% 30.26 in 10.0 mi West 10.4 mph - N/A   Clear
4:09 PM 35.6 °F 28.0 °F 23.0 °F 60% 30.26 in 10.0 mi West 10.4 mph - N/A   Clear
4:28 PM 33.8 °F 27.7 °F 23.0 °F 65% 30.26 in 10.0 mi West 6.9 mph - N/A   Clear
4:48 PM 33.8 °F 29.6 °F 23.0 °F 65% 30.26 in 10.0 mi West 4.6 mph - N/A   Clear
5:09 PM 33.8 °F 28.6 °F 23.0 °F 65% 30.27 in 10.0 mi West 5.8 mph - N/A   Clear
5:28 PM 33.8 °F 29.6 °F 23.0 °F 65% 30.26 in 10.0 mi West 4.6 mph - N/A   Clear
5:48 PM 30.2 °F 26.7 °F 21.2 °F 69% 30.26 in 10.0 mi SW 3.5 mph - N/A   Clear
6:09 PM 30.2 °F 24.3 °F 23.0 °F 75% 30.26 in 10.0 mi SW 5.8 mph - N/A   Clear
6:28 PM 30.2 °F 25.4 °F 23.0 °F 75% 30.26 in 10.0 mi SW 4.6 mph - N/A   Clear
6:48 PM 30.2 °F 24.3 °F 23.0 °F 75% 30.26 in 10.0 mi WSW 5.8 mph - N/A   Clear
7:08 PM 30.2 °F 24.3 °F 23.0 °F 75% 30.26 in 10.0 mi WSW 5.8 mph - N/A   Clear
7:28 PM 28.4 °F 23.3 °F 23.0 °F 80% 30.25 in 10.0 mi WSW 4.6 mph - N/A   Clear
7:49 PM 28.4 °F 23.3 °F 23.0 °F 80% 30.24 in 10.0 mi SW 4.6 mph - N/A   Clear
8:08 PM 28.4 °F 22.2 °F 23.0 °F 80% 30.24 in 10.0 mi SW 5.8 mph - N/A   Clear
8:28 PM 28.4 °F 24.6 °F 23.0 °F 80% 30.24 in 10.0 mi SW 3.5 mph - N/A   Clear
8:48 PM 26.6 °F 22.6 °F 21.2 °F 80% 30.23 in 10.0 mi SW 3.5 mph - N/A   Clear
9:08 PM 28.4 °F 24.6 °F 23.0 °F 80% 30.22 in 10.0 mi SSW 3.5 mph - N/A   Clear
10:08 PM 28.4 °F - 23.0 °F 80% 30.21 in 10.0 mi Calm Calm - N/A   Clear
10:28 PM 26.6 °F 21.2 °F 21.2 °F 80% 30.19 in 10.0 mi South 4.6 mph - N/A   Clear
11:08 PM 24.8 °F - 21.2 °F 86% 30.18 in 10.0 mi Calm Calm - N/A   Clear
11:28 PM 24.8 °F 19.1 °F 21.2 °F 86% 30.17 in 10.0 mi South 4.6 mph - N/A   Clear
11:48 PM 24.8 °F - 21.2 °F 86% 30.16 in 10.0 mi Calm Calm - N/A   Clear